Lid_Strength_Index
13 12 12 11 10 10 8 8 8 8 8 8 8 9 8 8 9 11 11 13 14 12
14 13 13 12 11 10 9 9 9 11 10 10 10 9 10 10 12 11 12 14 15 14
14 14 14 13 11 11 11 11 11 12 12 11 11 11 10 12 13 12 12 12 13 14
15 14 15 13 12 12 12 13 13 13 12 12 12 12 12 13 13 14 14 13 14 15
16 17 17 15 13 12 12 12 13 12 13 13 13 13 14 15 15 15 16 16 15 16
17 17 17 15 13 12 12 13 13 13 13 14 14 14 15 15 15 16 16 17 17 17
18 17 16 14 13 12 12 13 13 14 15 15 15 15 15 15 16 16 16 16 17 17
18 18 17 16 15 13 13 13 13 14 14 14 15 16 17 17 17 17 17 15 15 15
19 17 17 16 16 15 15 14 14 14 15 14 14 14 15 16 17 17 18 18 18 18
19 18 17 16 16 16 16 16 16 15 15 15 15 14 14 15 16 17 17 18 18 18
18 18 18 18 18 18 17 16 17 17 16 15 14 14 14 15 17 17 18 18 18 19
18 18 18 18 18 18 18 18 17 16 17 17 16 14 15 16 17 18 18 18 18 18
19 19 19 18 19 18 18 18 18 18 18 17 17 15 16 17 18 19 19 19 18 16
20 21 20 20 20 20 20 20 21 20 20 20 19 18 16 17 19 20 21 21 21 21